TimeEST,TemperatureF,Dew PointF,Humidity,Sea Level PressureIn,VisibilityMPH,Wind Direction,Wind SpeedMPH,Gust SpeedMPH,PrecipitationIn,Events,Conditions,WindDirDegrees,DateUTC
12:02 AM,39.2,37.4,93,30.05,0.5,Calm,Calm,-,N/A,Fog,Fog,0,2014-01-26 05:02:00
12:11 AM,39.2,37.4,93,30.05,0.2,Calm,Calm,-,N/A,Fog,Fog,0,2014-01-26 05:11:00
12:21 AM,41.0,37.4,87,30.05,0.5,Calm,Calm,-,N/A,Fog,Fog,0,2014-01-26 05:21:00
12:30 AM,39.2,37.4,93,30.05,0.2,Calm,Calm,-,N/A,Fog,Fog,0,2014-01-26 05:30:00
12:39 AM,39.2,37.4,93,30.04,0.8,Calm,Calm,-,N/A,,Mist,0,2014-01-26 05:39:00
12:42 AM,39.2,37.4,93,30.04,1.0,Calm,Calm,-,N/A,,Mist,0,2014-01-26 05:42:00
12:53 AM,39.9,37.0,89,30.04,1.5,Calm,Calm,-,N/A,,Mostly Cloudy,0,2014-01-26 05:53:00
1:10 AM,39.2,35.6,87,30.04,0.2,Calm,Calm,-,N/A,Fog,Fog,0,2014-01-26 06:10:00
1:31 AM,37.4,35.6,93,30.04,0.5,Calm,Calm,-,N/A,Fog,Fog,0,2014-01-26 06:31:00
1:44 AM,37.4,35.6,93,30.04,0.2,Calm,Calm,-,N/A,Fog,Fog,0,2014-01-26 06:44:00
1:53 AM,37.9,35.1,89,30.04,0.2,Calm,Calm,-,N/A,Fog,Fog,0,2014-01-26 06:53:00
2:05 AM,37.4,35.6,93,30.04,0.5,Calm,Calm,-,N/A,Fog,Fog,0,2014-01-26 07:05:00
2:13 AM,37.4,35.6,93,30.03,0.2,Calm,Calm,-,N/A,Fog,Fog,0,2014-01-26 07:13:00
2:31 AM,37.4,33.8,87,30.03,0.5,Calm,Calm,-,N/A,Fog,Fog,0,2014-01-26 07:31:00
2:53 AM,36.0,33.1,89,30.03,0.2,Calm,Calm,-,N/A,Fog,Fog,0,2014-01-26 07:53:00
3:02 AM,35.6,33.8,93,30.04,0.5,Calm,Calm,-,N/A,Fog,Fog,0,2014-01-26 08:02:00
3:27 AM,35.6,33.8,93,30.03,2.0,Calm,Calm,-,N/A,,Mostly Cloudy,0,2014-01-26 08:27:00
3:29 AM,35.6,33.8,93,30.03,3.0,Calm,Calm,-,N/A,,Scattered Clouds,0,2014-01-26 08:29:00
3:53 AM,35.1,30.9,85,30.03,10.0,Calm,Calm,-,N/A,,Partly Cloudy,0,2014-01-26 08:53:00
4:05 AM,33.8,30.2,87,30.04,10.0,Calm,Calm,-,N/A,,Mostly Cloudy,0,2014-01-26 09:05:00
4:53 AM,34.0,30.9,89,30.04,10.0,Calm,Calm,-,N/A,,Overcast,0,2014-01-26 09:53:00
5:06 AM,33.8,30.2,87,30.04,1.5,Calm,Calm,-,N/A,,Overcast,0,2014-01-26 10:06:00
5:14 AM,33.8,30.2,87,30.04,0.2,Calm,Calm,-,N/A,Fog,Fog,0,2014-01-26 10:14:00
5:36 AM,33.8,30.2,87,30.05,0.5,North,-9999.0,-,N/A,Fog,Fog,0,2014-01-26 10:36:00
5:46 AM,33.8,30.2,87,30.05,0.2,Calm,Calm,-,N/A,Fog,Fog,0,2014-01-26 10:46:00
5:53 AM,34.0,30.9,89,30.05,0.2,Calm,Calm,-,N/A,Fog,Fog,0,2014-01-26 10:53:00
6:53 AM,33.1,30.0,89,30.06,0.2,Calm,Calm,-,N/A,Fog,Fog,0,2014-01-26 11:53:00
7:26 AM,33.8,30.2,87,30.05,0.8,NNW,4.6,-,N/A,,Mostly Cloudy,340,2014-01-26 12:26:00
7:42 AM,35.6,33.8,93,30.05,1.5,Calm,Calm,-,N/A,,Mostly Cloudy,0,2014-01-26 12:42:00
7:53 AM,36.0,33.1,89,30.06,2.0,Calm,Calm,-,N/A,,Scattered Clouds,0,2014-01-26 12:53:00
8:17 AM,35.6,32.0,87,30.06,3.0,Calm,Calm,-,N/A,,Scattered Clouds,0,2014-01-26 13:17:00
8:53 AM,37.9,35.1,89,30.06,6.0,Calm,Calm,-,N/A,,Overcast,0,2014-01-26 13:53:00
9:53 AM,45.0,39.9,82,30.09,10.0,Calm,Calm,-,N/A,,Overcast,0,2014-01-26 14:53:00
10:53 AM,51.1,41.0,68,30.09,10.0,East,3.5,-,N/A,,Overcast,100,2014-01-26 15:53:00
11:53 AM,57.0,33.1,40,30.08,10.0,South,4.6,-,N/A,,Overcast,170,2014-01-26 16:53:00
12:53 PM,60.1,30.0,32,30.05,10.0,Variable,6.9,-,N/A,,Mostly Cloudy,0,2014-01-26 17:53:00
1:53 PM,61.0,30.0,31,30.01,10.0,Variable,5.8,-,N/A,,Mostly Cloudy,0,2014-01-26 18:53:00
2:53 PM,60.1,30.9,33,29.99,10.0,SW,5.8,-,N/A,,Mostly Cloudy,220,2014-01-26 19:53:00
3:53 PM,60.1,30.0,32,29.98,10.0,South,8.1,-,N/A,,Mostly Cloudy,170,2014-01-26 20:53:00
4:53 PM,59.0,32.0,36,29.97,10.0,SSE,6.9,-,N/A,,Mostly Cloudy,160,2014-01-26 21:53:00
5:53 PM,55.9,36.0,47,29.96,10.0,SSE,8.1,-,N/A,,Mostly Cloudy,160,2014-01-26 22:53:00
6:53 PM,52.0,37.9,59,29.99,10.0,Calm,Calm,-,N/A,,Scattered Clouds,0,2014-01-26 23:53:00
7:53 PM,51.1,43.0,74,29.99,10.0,Calm,Calm,-,N/A,,Partly Cloudy,0,2014-01-27 00:53:00
8:53 PM,50.0,42.1,74,29.99,10.0,Calm,Calm,-,N/A,,Partly Cloudy,0,2014-01-27 01:53:00
9:53 PM,48.0,42.1,80,29.99,10.0,Calm,Calm,-,N/A,,Mostly Cloudy,0,2014-01-27 02:53:00
10:53 PM,48.0,42.1,80,29.99,10.0,Calm,Calm,-,N/A,,Mostly Cloudy,0,2014-01-27 03:53:00
11:53 PM,45.0,39.9,82,29.99,10.0,Calm,Calm,-,N/A,,Clear,0,2014-01-27 04:53:00